sat.trackr.live / text

‹ back to catalog

STARLINK-35373

NORAD 65792 · 2025-218B

PAYLOAD ACTIVE UNKNOWN

§ Identity

Operator
Country
US
Launch date
2025-09-26
Launch site
AFWTR
Launch vehicle
Mass (kg)
RCS (m²)

Purposes: comms

External: N2YO · Heavens-Above · Gunter

§ Orbital elements

Epoch: 2026-09-20T21:04:25.013856Z

Period
93.91 min
Inclination
97.2841°
Eccentricity
0.0002342
Mean motion
15.33447713 rev/d
Perigee alt
463.9 km
Apogee alt
467.1 km
Semi-major
6,843.7 km
B*
3.2950e-4
RAAN
121.2772°
Arg perigee
91.8642°
Mean anomaly
268.2869°
Rev number
5,439

§ Raw data

STARLINK-353731 65792U 25218B   26263.87806729  .00010579  00000+0  32950-3 0  99962 65792  97.2841 121.2772 0002342  91.8642 268.2869 15.33447713 54395

JSON: /api/v1/satellites/65792 · /tle

For live sub-satellite position, see the globe view (requires WebGL).

§ Visibility from observer

Set your observer location to see the next 7 days of passes ≥ 10°. The values pass through the URL so the page stays shareable.

No JS? Fill the form by hand. The geolocation button needs JavaScript.